Year,Month,Day,Hour,Minute,Value (Times are PST for temperature in C)
2005,08,28,00,00,15.40
2005,08,28,00,01,15.40
2005,08,28,00,02,15.40
2005,08,28,00,03,15.30
2005,08,28,00,04,15.30
2005,08,28,00,05,15.30
2005,08,28,00,06,15.30
2005,08,28,00,07,15.30
2005,08,28,00,08,15.30
2005,08,28,00,09,15.30
2005,08,28,00,10,15.30
2005,08,28,00,11,15.30
2005,08,28,00,12,15.30
2005,08,28,00,13,15.30
2005,08,28,00,14,15.30
2005,08,28,00,15,15.30
2005,08,28,00,16,15.30
2005,08,28,00,17,15.20
2005,08,28,00,18,15.20
2005,08,28,00,19,15.20
2005,08,28,00,20,15.20
2005,08,28,00,21,15.20
2005,08,28,00,22,15.20
2005,08,28,00,23,15.10
2005,08,28,00,24,15.10
2005,08,28,00,25,15.10
2005,08,28,00,26,15.10
2005,08,28,00,27,15.10
2005,08,28,00,28,15.00
2005,08,28,00,29,15.00
2005,08,28,00,30,15.00
2005,08,28,00,31,15.00
2005,08,28,00,32,15.00
2005,08,28,00,33,15.00
2005,08,28,00,34,15.00
2005,08,28,00,35,14.90
2005,08,28,00,36,14.90
2005,08,28,00,37,14.90
2005,08,28,00,38,14.90
2005,08,28,00,39,14.90
2005,08,28,00,40,14.90
2005,08,28,00,41,14.90
2005,08,28,00,42,14.90
2005,08,28,00,43,14.90
2005,08,28,00,44,14.90
2005,08,28,00,45,14.90
2005,08,28,00,46,14.80
2005,08,28,00,47,14.80
2005,08,28,00,48,14.80
2005,08,28,00,49,14.80
2005,08,28,00,50,14.80
2005,08,28,00,51,14.80
2005,08,28,00,52,14.80
2005,08,28,00,53,14.80
2005,08,28,00,54,14.90
2005,08,28,00,55,14.90
2005,08,28,00,56,15.00
2005,08,28,00,57,15.00
2005,08,28,00,58,15.00
2005,08,28,00,59,15.10
2005,08,28,01,00,15.10
2005,08,28,01,01,15.10
2005,08,28,01,02,15.20
2005,08,28,01,03,15.20
2005,08,28,01,04,15.20
2005,08,28,01,05,15.30
2005,08,28,01,06,15.30
2005,08,28,01,07,15.30
2005,08,28,01,08,15.30
2005,08,28,01,09,15.30
2005,08,28,01,10,15.30
2005,08,28,01,11,15.30
2005,08,28,01,12,15.30
2005,08,28,01,13,15.30
2005,08,28,01,14,15.30
2005,08,28,01,15,15.30
2005,08,28,01,16,15.30
2005,08,28,01,17,15.30
2005,08,28,01,18,15.30
2005,08,28,01,19,15.30
2005,08,28,01,20,15.30
2005,08,28,01,21,15.30
2005,08,28,01,22,15.30
2005,08,28,01,23,15.30
2005,08,28,01,24,15.20
2005,08,28,01,25,15.20
2005,08,28,01,26,15.20
2005,08,28,01,27,15.20
2005,08,28,01,28,15.10
2005,08,28,01,29,15.10
2005,08,28,01,30,15.10
2005,08,28,01,31,15.10
2005,08,28,01,32,15.00
2005,08,28,01,33,15.00
2005,08,28,01,34,15.00
2005,08,28,01,35,15.00
2005,08,28,01,36,14.90
2005,08,28,01,37,14.90
2005,08,28,01,38,14.90
2005,08,28,01,39,14.90
2005,08,28,01,40,14.90
2005,08,28,01,41,14.90
2005,08,28,01,42,14.90
2005,08,28,01,43,14.80
2005,08,28,01,44,14.80
2005,08,28,01,45,14.80
2005,08,28,01,46,14.80
2005,08,28,01,47,14.80
2005,08,28,01,48,14.80
2005,08,28,01,49,14.80
2005,08,28,01,50,14.80
2005,08,28,01,51,14.80
2005,08,28,01,52,14.80
2005,08,28,01,53,14.80
2005,08,28,01,54,14.80
2005,08,28,01,55,14.80
2005,08,28,01,56,14.80
2005,08,28,01,57,14.80
2005,08,28,01,58,14.80
2005,08,28,01,59,14.80
2005,08,28,02,00,14.80
2005,08,28,02,01,14.80
2005,08,28,02,02,14.80
2005,08,28,02,03,14.80
2005,08,28,02,04,14.80
2005,08,28,02,05,14.80
2005,08,28,02,06,14.80
2005,08,28,02,07,14.80
2005,08,28,02,08,14.80
2005,08,28,02,09,14.80
2005,08,28,02,10,14.80
2005,08,28,02,11,14.80
2005,08,28,02,12,14.80
2005,08,28,02,13,14.80
2005,08,28,02,14,14.80
2005,08,28,02,15,14.80
2005,08,28,02,16,14.80
2005,08,28,02,17,14.80
2005,08,28,02,18,14.80
2005,08,28,02,19,14.80
2005,08,28,02,20,14.80
2005,08,28,02,21,14.80
2005,08,28,02,22,14.80
2005,08,28,02,23,14.80
2005,08,28,02,24,14.80
2005,08,28,02,25,14.80
2005,08,28,02,26,14.80
2005,08,28,02,27,14.80
2005,08,28,02,28,14.70
2005,08,28,02,29,14.70
2005,08,28,02,30,14.60
2005,08,28,02,31,14.60
2005,08,28,02,32,14.60
2005,08,28,02,33,14.50
2005,08,28,02,34,14.50
2005,08,28,02,35,14.50
2005,08,28,02,36,14.40
2005,08,28,02,37,14.40
2005,08,28,02,38,14.30
2005,08,28,02,39,14.30
2005,08,28,02,40,14.20
2005,08,28,02,41,14.20
2005,08,28,02,42,14.20
2005,08,28,02,43,14.10
2005,08,28,02,44,14.10
2005,08,28,02,45,14.00
2005,08,28,02,46,14.00
2005,08,28,02,47,13.90
2005,08,28,02,48,13.90
2005,08,28,02,49,13.80
2005,08,28,02,50,13.80
2005,08,28,02,51,13.70
2005,08,28,02,52,13.70
2005,08,28,02,53,13.70
2005,08,28,02,54,13.70
2005,08,28,02,55,13.60
2005,08,28,02,56,13.60
2005,08,28,02,57,13.60
2005,08,28,02,58,13.60
2005,08,28,02,59,13.60
2005,08,28,03,00,13.60
2005,08,28,03,01,13.50
2005,08,28,03,02,13.50
2005,08,28,03,03,13.50
2005,08,28,03,04,13.50
2005,08,28,03,05,13.50
2005,08,28,03,06,13.50
2005,08,28,03,07,13.50
2005,08,28,03,08,13.50
2005,08,28,03,09,13.40
2005,08,28,03,10,13.40
2005,08,28,03,11,13.40
2005,08,28,03,12,13.50
2005,08,28,03,13,13.50
2005,08,28,03,14,13.50
2005,08,28,03,15,13.50
2005,08,28,03,16,13.50
2005,08,28,03,17,13.50
2005,08,28,03,18,13.50
2005,08,28,03,19,13.50
2005,08,28,03,20,13.50
2005,08,28,03,21,13.50
2005,08,28,03,22,13.50
2005,08,28,03,23,13.50
2005,08,28,03,24,13.50
2005,08,28,03,25,13.50
2005,08,28,03,26,13.50
2005,08,28,03,27,13.50
2005,08,28,03,28,13.50
2005,08,28,03,29,13.50
2005,08,28,03,30,13.50
2005,08,28,03,31,13.50
2005,08,28,03,32,13.50
2005,08,28,03,33,13.50
2005,08,28,03,34,13.50
2005,08,28,03,35,13.50
2005,08,28,03,36,13.50
2005,08,28,03,37,13.50
2005,08,28,03,38,13.50
2005,08,28,03,39,13.50
2005,08,28,03,40,13.50
2005,08,28,03,41,13.50
2005,08,28,03,42,13.50
2005,08,28,03,43,13.50
2005,08,28,03,44,13.50
2005,08,28,03,45,13.50
2005,08,28,03,46,13.50
2005,08,28,03,47,13.50
2005,08,28,03,48,13.50
2005,08,28,03,49,13.50
2005,08,28,03,50,13.50
2005,08,28,03,51,13.50
2005,08,28,03,52,13.50
2005,08,28,03,53,13.50
2005,08,28,03,54,13.50
2005,08,28,03,55,13.50
2005,08,28,03,56,13.50
2005,08,28,03,57,13.40
2005,08,28,03,58,13.40
2005,08,28,03,59,13.50
2005,08,28,04,00,13.50
2005,08,28,04,01,13.50
2005,08,28,04,02,13.50
2005,08,28,04,03,13.50
2005,08,28,04,04,13.50
2005,08,28,04,05,13.50
2005,08,28,04,06,13.50
2005,08,28,04,07,13.50
2005,08,28,04,08,13.50
2005,08,28,04,09,13.40
2005,08,28,04,10,13.40
2005,08,28,04,11,13.40
2005,08,28,04,12,13.40
2005,08,28,04,13,13.40
2005,08,28,04,14,13.30
2005,08,28,04,15,13.40
2005,08,28,04,16,13.40
2005,08,28,04,17,13.50
2005,08,28,04,18,13.50
2005,08,28,04,19,13.60
2005,08,28,04,20,13.60
2005,08,28,04,21,13.60
2005,08,28,04,22,13.60
2005,08,28,04,23,13.60
2005,08,28,04,24,13.60
2005,08,28,04,25,13.60
2005,08,28,04,26,13.60
2005,08,28,04,27,13.50
2005,08,28,04,28,13.50
2005,08,28,04,29,13.50
2005,08,28,04,30,13.50
2005,08,28,04,31,13.40
2005,08,28,04,32,13.40
2005,08,28,04,33,13.40
2005,08,28,04,34,13.40
2005,08,28,04,35,13.40
2005,08,28,04,36,13.30
2005,08,28,04,37,13.30
2005,08,28,04,38,13.30
2005,08,28,04,39,13.30
2005,08,28,04,40,13.30
2005,08,28,04,41,13.30
2005,08,28,04,42,13.30
2005,08,28,04,43,13.30
2005,08,28,04,44,13.30
2005,08,28,04,45,13.30
2005,08,28,04,46,13.30
2005,08,28,04,47,13.30
2005,08,28,04,48,13.30
2005,08,28,04,49,13.40
2005,08,28,04,50,13.40
2005,08,28,04,51,13.40
2005,08,28,04,52,13.40
2005,08,28,04,53,13.40
2005,08,28,04,54,13.50
2005,08,28,04,55,13.50
2005,08,28,04,56,13.50
2005,08,28,04,57,13.60
2005,08,28,04,58,13.60
2005,08,28,04,59,13.60
2005,08,28,05,00,13.60
2005,08,28,05,01,13.60
2005,08,28,05,02,13.60
2005,08,28,05,03,13.70
2005,08,28,05,04,13.70
2005,08,28,05,05,13.70
2005,08,28,05,06,13.70
2005,08,28,05,07,13.70
2005,08,28,05,08,13.70
2005,08,28,05,09,13.70
2005,08,28,05,10,13.70
2005,08,28,05,11,13.70
2005,08,28,05,12,13.70
2005,08,28,05,13,13.70
2005,08,28,05,14,13.70
2005,08,28,05,15,13.70
2005,08,28,05,16,13.70
2005,08,28,05,17,13.70
2005,08,28,05,18,13.70
2005,08,28,05,19,13.70
2005,08,28,05,20,13.70
2005,08,28,05,21,13.70
2005,08,28,05,22,13.70
2005,08,28,05,23,13.70
2005,08,28,05,24,13.70
2005,08,28,05,25,13.70
2005,08,28,05,26,13.70
2005,08,28,05,27,13.70
2005,08,28,05,28,13.70
2005,08,28,05,29,13.70
2005,08,28,05,30,13.70
2005,08,28,05,31,13.70
2005,08,28,05,32,13.70
2005,08,28,05,33,13.70
2005,08,28,05,34,13.70
2005,08,28,05,35,13.70
2005,08,28,05,36,13.70
2005,08,28,05,37,13.70
2005,08,28,05,38,13.70
2005,08,28,05,39,13.70
2005,08,28,05,40,13.70
2005,08,28,05,41,13.70
2005,08,28,05,42,13.70
2005,08,28,05,43,13.60
2005,08,28,05,44,13.60
2005,08,28,05,45,13.60
2005,08,28,05,46,13.60
2005,08,28,05,47,13.60
2005,08,28,05,48,13.60
2005,08,28,05,49,13.60
2005,08,28,05,50,13.60
2005,08,28,05,51,13.60
2005,08,28,05,52,13.60
2005,08,28,05,53,13.60
2005,08,28,05,54,13.60
2005,08,28,05,55,13.60
2005,08,28,05,56,13.70
2005,08,28,05,57,13.70
2005,08,28,05,58,13.70
2005,08,28,05,59,13.70
2005,08,28,06,00,13.70
2005,08,28,06,01,13.70
2005,08,28,06,02,13.70
2005,08,28,06,03,13.70
2005,08,28,06,04,13.70
2005,08,28,06,05,13.70
2005,08,28,06,06,13.70
2005,08,28,06,07,13.70
2005,08,28,06,08,13.70
2005,08,28,06,09,13.70
2005,08,28,06,10,13.70
2005,08,28,06,11,13.70
2005,08,28,06,12,13.70
2005,08,28,06,13,13.70
2005,08,28,06,14,13.70
2005,08,28,06,15,13.70
2005,08,28,06,16,13.70
2005,08,28,06,17,13.70
2005,08,28,06,18,13.70
2005,08,28,06,19,13.80
2005,08,28,06,20,13.80
2005,08,28,06,21,13.80
2005,08,28,06,22,13.80
2005,08,28,06,23,13.90
2005,08,28,06,24,13.90
2005,08,28,06,25,13.90
2005,08,28,06,26,13.90
2005,08,28,06,27,14.00
2005,08,28,06,28,14.00
2005,08,28,06,29,14.10
2005,08,28,06,30,14.10
2005,08,28,06,31,14.10
2005,08,28,06,32,14.10
2005,08,28,06,33,14.10
2005,08,28,06,34,14.20
2005,08,28,06,35,14.20
2005,08,28,06,36,14.20
2005,08,28,06,37,14.20
2005,08,28,06,38,14.20
2005,08,28,06,39,14.30
2005,08,28,06,40,14.30
2005,08,28,06,41,14.30
2005,08,28,06,42,14.30
2005,08,28,06,43,14.40
2005,08,28,06,44,14.40
2005,08,28,06,45,14.40
2005,08,28,06,46,14.50
2005,08,28,06,47,14.50
2005,08,28,06,48,14.50
2005,08,28,06,49,14.50
2005,08,28,06,50,14.60
2005,08,28,06,51,14.60
2005,08,28,06,52,14.70
2005,08,28,06,53,14.70
2005,08,28,06,54,14.70
2005,08,28,06,55,14.70
2005,08,28,06,56,14.70
2005,08,28,06,57,14.80
2005,08,28,06,58,14.80
2005,08,28,06,59,14.80
2005,08,28,07,00,14.80
2005,08,28,07,01,14.80
2005,08,28,07,02,14.80
2005,08,28,07,03,14.90
2005,08,28,07,04,14.90
2005,08,28,07,05,14.90
2005,08,28,07,06,14.90
2005,08,28,07,07,15.00
2005,08,28,07,08,15.00
2005,08,28,07,09,15.00
2005,08,28,07,10,15.00
2005,08,28,07,11,15.00
2005,08,28,07,12,15.00
2005,08,28,07,13,15.00
2005,08,28,07,14,15.10
2005,08,28,07,15,15.10
2005,08,28,07,16,15.10
2005,08,28,07,17,15.10
2005,08,28,07,18,15.10
2005,08,28,07,19,15.10
2005,08,28,07,20,15.10
2005,08,28,07,21,15.10
2005,08,28,07,22,15.10
2005,08,28,07,23,15.10
2005,08,28,07,24,15.10
2005,08,28,07,25,15.10
2005,08,28,07,26,15.10
2005,08,28,07,27,15.10
2005,08,28,07,28,15.10
2005,08,28,07,29,15.10
2005,08,28,07,30,15.10
2005,08,28,07,31,15.10
2005,08,28,07,32,15.20
2005,08,28,07,33,15.20
2005,08,28,07,34,15.20
2005,08,28,07,35,15.20
2005,08,28,07,36,15.30
2005,08,28,07,37,15.30
2005,08,28,07,38,15.30
2005,08,28,07,39,15.30
2005,08,28,07,40,15.30
2005,08,28,07,41,15.40
2005,08,28,07,42,15.40
2005,08,28,07,43,15.50
2005,08,28,07,44,15.50
2005,08,28,07,45,15.60
2005,08,28,07,46,15.60
2005,08,28,07,47,15.60
2005,08,28,07,48,15.70
2005,08,28,07,49,15.70
2005,08,28,07,50,15.80
2005,08,28,07,51,15.80
2005,08,28,07,52,15.90
2005,08,28,07,53,16.00
2005,08,28,07,54,16.10
2005,08,28,07,55,16.10
2005,08,28,07,56,16.20
2005,08,28,07,57,16.20
2005,08,28,07,58,16.20
2005,08,28,07,59,16.30
2005,08,28,08,00,16.30
2005,08,28,08,01,16.30
2005,08,28,08,02,16.30
2005,08,28,08,03,16.30
2005,08,28,08,04,16.30
2005,08,28,08,05,16.30
2005,08,28,08,06,16.30
2005,08,28,08,07,16.30
2005,08,28,08,08,16.20
2005,08,28,08,09,16.20
2005,08,28,08,10,16.20
2005,08,28,08,11,16.20
2005,08,28,08,12,16.20
2005,08,28,08,13,16.20
2005,08,28,08,14,16.10
2005,08,28,08,15,16.10
2005,08,28,08,16,16.10
2005,08,28,08,17,16.10
2005,08,28,08,18,16.10
2005,08,28,08,19,16.10
2005,08,28,08,20,16.10
2005,08,28,08,21,16.10
2005,08,28,08,22,16.10
2005,08,28,08,23,16.10
2005,08,28,08,24,16.10
2005,08,28,08,25,16.10
2005,08,28,08,26,16.10
2005,08,28,08,27,16.10
2005,08,28,08,28,16.00
2005,08,28,08,29,15.90
2005,08,28,08,30,15.90
2005,08,28,08,31,15.90
2005,08,28,08,32,15.90
2005,08,28,08,33,15.90
2005,08,28,08,34,15.90
2005,08,28,08,35,15.90
2005,08,28,08,36,15.90
2005,08,28,08,37,15.80
2005,08,28,08,38,15.80
2005,08,28,08,39,15.80
2005,08,28,08,40,15.80
2005,08,28,08,41,15.90
2005,08,28,08,42,15.90
2005,08,28,08,43,15.90
2005,08,28,08,44,15.90
2005,08,28,08,45,15.90
2005,08,28,08,46,15.90
2005,08,28,08,47,15.90
2005,08,28,08,48,16.00
2005,08,28,08,49,16.10
2005,08,28,08,50,16.10
2005,08,28,08,51,16.10
2005,08,28,08,52,16.10
2005,08,28,08,53,16.10
2005,08,28,08,54,16.10
2005,08,28,08,55,16.10
2005,08,28,08,56,16.10
2005,08,28,08,57,16.10
2005,08,28,08,58,16.10
2005,08,28,08,59,16.10
2005,08,28,09,00,16.10
2005,08,28,09,01,16.20
2005,08,28,09,02,16.20
2005,08,28,09,03,16.20
2005,08,28,09,04,16.20
2005,08,28,09,05,16.20
2005,08,28,09,06,16.30
2005,08,28,09,07,16.30
2005,08,28,09,08,16.30
2005,08,28,09,09,16.30
2005,08,28,09,10,16.30
2005,08,28,09,11,16.40
2005,08,28,09,12,16.40
2005,08,28,09,13,16.40
2005,08,28,09,14,16.40
2005,08,28,09,15,16.40
2005,08,28,09,16,16.40
2005,08,28,09,17,16.40
2005,08,28,09,18,16.40
2005,08,28,09,19,16.40
2005,08,28,09,20,16.40
2005,08,28,09,21,16.40
2005,08,28,09,22,16.40
2005,08,28,09,23,16.40
2005,08,28,09,24,16.40
2005,08,28,09,25,16.40
2005,08,28,09,26,16.40
2005,08,28,09,27,16.40
2005,08,28,09,28,16.40
2005,08,28,09,29,16.40
2005,08,28,09,30,16.30
2005,08,28,09,31,16.30
2005,08,28,09,32,16.30
2005,08,28,09,33,16.20
2005,08,28,09,34,16.20
2005,08,28,09,35,16.20
2005,08,28,09,36,16.10
2005,08,28,09,37,16.10
2005,08,28,09,38,16.10
2005,08,28,09,39,16.10
2005,08,28,09,40,16.10
2005,08,28,09,41,16.10
2005,08,28,09,42,16.00
2005,08,28,09,43,15.90
2005,08,28,09,44,15.90
2005,08,28,09,45,15.80
2005,08,28,09,46,15.80
2005,08,28,09,47,15.80
2005,08,28,09,48,15.80
2005,08,28,09,49,15.80
2005,08,28,09,50,15.80
2005,08,28,09,51,15.80
2005,08,28,09,52,15.80
2005,08,28,09,53,15.80
2005,08,28,09,54,15.80
2005,08,28,09,55,15.80
2005,08,28,09,56,15.80
2005,08,28,09,57,15.80
2005,08,28,09,58,15.70
2005,08,28,09,59,15.70
2005,08,28,10,00,15.70
2005,08,28,10,01,15.70
2005,08,28,10,02,15.70
2005,08,28,10,03,15.70
2005,08,28,10,04,15.70
2005,08,28,10,05,15.70
2005,08,28,10,06,15.70
2005,08,28,10,07,15.60
2005,08,28,10,08,15.60
2005,08,28,10,09,15.60
2005,08,28,10,10,15.60
2005,08,28,10,11,15.60
2005,08,28,10,12,15.50
2005,08,28,10,13,15.50
2005,08,28,10,14,15.40
2005,08,28,10,15,15.40
2005,08,28,10,16,15.40
2005,08,28,10,17,15.40
2005,08,28,10,18,15.40
2005,08,28,10,19,15.40
2005,08,28,10,20,15.40
2005,08,28,10,21,15.40
2005,08,28,10,22,15.40
2005,08,28,10,23,15.40
2005,08,28,10,24,15.40
2005,08,28,10,25,15.40
2005,08,28,10,26,15.40
2005,08,28,10,27,15.40
2005,08,28,10,28,15.40
2005,08,28,10,29,15.40
2005,08,28,10,30,15.30
2005,08,28,10,31,15.30
2005,08,28,10,32,15.30
2005,08,28,10,33,15.30
2005,08,28,10,34,15.30
2005,08,28,10,35,15.30
2005,08,28,10,36,15.30
2005,08,28,10,37,15.30
2005,08,28,10,38,15.30
2005,08,28,10,39,15.30
2005,08,28,10,40,15.30
2005,08,28,10,41,15.30
2005,08,28,10,42,15.30
2005,08,28,10,43,15.30
2005,08,28,10,44,15.30
2005,08,28,10,45,15.30
2005,08,28,10,46,15.30
2005,08,28,10,47,15.20
2005,08,28,10,48,15.20
2005,08,28,10,49,15.20
2005,08,28,10,50,15.20
2005,08,28,10,51,15.20
2005,08,28,10,52,15.30
2005,08,28,10,53,15.30
2005,08,28,10,54,15.20
2005,08,28,10,55,15.30
2005,08,28,10,56,15.30
2005,08,28,10,57,15.20
2005,08,28,10,58,15.20
2005,08,28,10,59,15.20
2005,08,28,11,00,15.30
2005,08,28,11,01,15.20
2005,08,28,11,02,15.20
2005,08,28,11,03,15.10
2005,08,28,11,04,15.10
2005,08,28,11,05,15.10
2005,08,28,11,06,15.10
2005,08,28,11,07,15.00
2005,08,28,11,08,15.00
2005,08,28,11,09,15.00
2005,08,28,11,10,15.00
2005,08,28,11,11,15.00
2005,08,28,11,12,15.00
2005,08,28,11,13,15.00
2005,08,28,11,14,14.90
2005,08,28,11,15,14.90
2005,08,28,11,16,14.90
2005,08,28,11,17,14.90
2005,08,28,11,18,14.90
2005,08,28,11,19,15.00
2005,08,28,11,20,15.00
2005,08,28,11,21,15.00
2005,08,28,11,22,15.10
2005,08,28,11,23,15.10
2005,08,28,11,24,15.20
2005,08,28,11,25,15.20
2005,08,28,11,26,15.20
2005,08,28,11,27,15.30
2005,08,28,11,28,15.30
2005,08,28,11,29,15.40
2005,08,28,11,30,15.40
2005,08,28,11,31,15.50
2005,08,28,11,32,15.50
2005,08,28,11,33,15.50
2005,08,28,11,34,15.50
2005,08,28,11,35,15.50
2005,08,28,11,36,15.50
2005,08,28,11,37,15.50
2005,08,28,11,38,15.60
2005,08,28,11,39,15.60
2005,08,28,11,40,15.60
2005,08,28,11,41,15.70
2005,08,28,11,42,15.70
2005,08,28,11,43,15.80
2005,08,28,11,44,15.80
2005,08,28,11,45,15.90
2005,08,28,11,46,15.90
2005,08,28,11,47,15.90
2005,08,28,11,48,15.90
2005,08,28,11,49,15.90
2005,08,28,11,50,16.10
2005,08,28,11,51,16.10
2005,08,28,11,52,16.10
2005,08,28,11,53,16.10
2005,08,28,11,54,16.20
2005,08,28,11,55,16.30
2005,08,28,11,56,16.30
2005,08,28,11,57,16.40
2005,08,28,11,58,16.50
2005,08,28,11,59,16.60
2005,08,28,12,00,16.70
2005,08,28,12,01,16.70
2005,08,28,12,02,16.80
2005,08,28,12,03,16.90
2005,08,28,12,04,16.90
2005,08,28,12,05,16.90
2005,08,28,12,06,16.90
2005,08,28,12,07,16.90
2005,08,28,12,08,16.80
2005,08,28,12,09,16.90
2005,08,28,12,10,17.00
2005,08,28,12,11,17.10
2005,08,28,12,12,17.20
2005,08,28,12,13,17.30
2005,08,28,12,14,17.40
2005,08,28,12,15,17.50
2005,08,28,12,16,17.40
2005,08,28,12,17,17.20
2005,08,28,12,18,17.10
2005,08,28,12,19,17.00
2005,08,28,12,20,17.00
2005,08,28,12,21,17.00
2005,08,28,12,22,16.90
2005,08,28,12,23,16.90
2005,08,28,12,24,16.90
2005,08,28,12,25,16.90
2005,08,28,12,26,16.90
2005,08,28,12,27,16.90
2005,08,28,12,28,17.00
2005,08,28,12,29,17.10
2005,08,28,12,30,17.10
2005,08,28,12,31,17.10
2005,08,28,12,32,17.00
2005,08,28,12,33,16.90
2005,08,28,12,34,16.90
2005,08,28,12,35,16.70
2005,08,28,12,36,16.70
2005,08,28,12,37,16.70
2005,08,28,12,38,16.70
2005,08,28,12,39,16.70
2005,08,28,12,40,16.70
2005,08,28,12,41,16.80
2005,08,28,12,42,16.80
2005,08,28,12,43,16.90
2005,08,28,12,44,16.90
2005,08,28,12,45,16.90
2005,08,28,12,46,16.90
2005,08,28,12,47,16.90
2005,08,28,12,48,16.90
2005,08,28,12,49,16.90
2005,08,28,12,50,17.00
2005,08,28,12,51,17.00
2005,08,28,12,52,17.10
2005,08,28,12,53,17.10
2005,08,28,12,54,17.20
2005,08,28,12,55,17.20
2005,08,28,12,56,17.20
2005,08,28,12,57,17.20
2005,08,28,12,58,17.20
2005,08,28,12,59,17.20
2005,08,28,13,00,17.20
2005,08,28,13,01,17.20
2005,08,28,13,02,17.30
2005,08,28,13,03,17.30
2005,08,28,13,04,17.30
2005,08,28,13,05,17.30
2005,08,28,13,06,17.40
2005,08,28,13,07,17.50
2005,08,28,13,08,17.60
2005,08,28,13,09,17.60
2005,08,28,13,10,17.60
2005,08,28,13,11,17.50
2005,08,28,13,12,17.40
2005,08,28,13,13,17.30
2005,08,28,13,14,17.30
2005,08,28,13,15,17.30
2005,08,28,13,16,17.30
2005,08,28,13,17,17.30
2005,08,28,13,18,17.30
2005,08,28,13,19,17.30
2005,08,28,13,20,17.30
2005,08,28,13,21,17.40
2005,08,28,13,22,17.40
2005,08,28,13,23,17.40
2005,08,28,13,24,17.30
2005,08,28,13,25,17.20
2005,08,28,13,26,17.00
2005,08,28,13,27,17.00
2005,08,28,13,28,16.90
2005,08,28,13,29,16.90
2005,08,28,13,30,16.90
2005,08,28,13,31,17.00
2005,08,28,13,32,17.00
2005,08,28,13,33,17.10
2005,08,28,13,34,17.20
2005,08,28,13,35,17.30
2005,08,28,13,36,17.30
2005,08,28,13,37,17.30
2005,08,28,13,38,17.30
2005,08,28,13,39,17.20
2005,08,28,13,40,17.20
2005,08,28,13,41,17.20
2005,08,28,13,42,17.10
2005,08,28,13,43,17.10
2005,08,28,13,44,17.20
2005,08,28,13,45,17.30
2005,08,28,13,46,17.20
2005,08,28,13,47,17.20
2005,08,28,13,48,17.20
2005,08,28,13,49,17.20
2005,08,28,13,50,17.20
2005,08,28,13,51,17.20
2005,08,28,13,52,17.20
2005,08,28,13,53,17.20
2005,08,28,13,54,17.10
2005,08,28,13,55,17.00
2005,08,28,13,56,16.90
2005,08,28,13,57,16.90
2005,08,28,13,58,16.90
2005,08,28,13,59,16.80
2005,08,28,14,00,16.80
2005,08,28,14,01,16.80
2005,08,28,14,02,16.80
2005,08,28,14,03,16.80
2005,08,28,14,04,16.90
2005,08,28,14,05,16.90
2005,08,28,14,06,16.90
2005,08,28,14,07,16.90
2005,08,28,14,08,16.80
2005,08,28,14,09,16.80
2005,08,28,14,10,16.90
2005,08,28,14,11,16.90
2005,08,28,14,12,16.90
2005,08,28,14,13,17.00
2005,08,28,14,14,17.00
2005,08,28,14,15,17.00
2005,08,28,14,16,17.10
2005,08,28,14,17,17.10
2005,08,28,14,18,17.10
2005,08,28,14,19,17.20
2005,08,28,14,20,17.20
2005,08,28,14,21,17.30
2005,08,28,14,22,17.30
2005,08,28,14,23,17.30
2005,08,28,14,24,17.30
2005,08,28,14,25,17.30
2005,08,28,14,26,17.30
2005,08,28,14,27,17.30
2005,08,28,14,28,17.30
2005,08,28,14,29,17.30
2005,08,28,14,30,17.40
2005,08,28,14,31,17.40
2005,08,28,14,32,17.40
2005,08,28,14,33,17.40
2005,08,28,14,34,17.40
2005,08,28,14,35,17.40
2005,08,28,14,36,17.30
2005,08,28,14,37,17.30
2005,08,28,14,38,17.30
2005,08,28,14,39,17.30
2005,08,28,14,40,17.30
2005,08,28,14,41,17.30
2005,08,28,14,42,17.30
2005,08,28,14,43,17.30
2005,08,28,14,44,17.30
2005,08,28,14,45,17.30
2005,08,28,14,46,17.30
2005,08,28,14,47,17.30
2005,08,28,14,48,17.30
2005,08,28,14,49,17.30
2005,08,28,14,50,17.20
2005,08,28,14,51,17.20
2005,08,28,14,52,17.20
2005,08,28,14,53,17.20
2005,08,28,14,54,17.10
2005,08,28,14,55,17.10
2005,08,28,14,56,17.10
2005,08,28,14,57,17.10
2005,08,28,14,58,17.10
2005,08,28,14,59,17.10
2005,08,28,15,00,17.00
2005,08,28,15,01,17.00
2005,08,28,15,02,16.90
2005,08,28,15,03,16.90
2005,08,28,15,04,16.90
2005,08,28,15,05,16.90
2005,08,28,15,06,16.90
2005,08,28,15,07,16.90
2005,08,28,15,08,16.80
2005,08,28,15,09,16.80
2005,08,28,15,10,16.80
2005,08,28,15,11,16.80
2005,08,28,15,12,16.80
2005,08,28,15,13,16.80
2005,08,28,15,14,16.80
2005,08,28,15,15,16.80
2005,08,28,15,16,16.80
2005,08,28,15,17,16.80
2005,08,28,15,18,16.80
2005,08,28,15,19,16.80
2005,08,28,15,20,16.80
2005,08,28,15,21,16.70
2005,08,28,15,22,16.70
2005,08,28,15,23,16.70
2005,08,28,15,24,16.70
2005,08,28,15,25,16.70
2005,08,28,15,26,16.70
2005,08,28,15,27,16.60
2005,08,28,15,28,16.60
2005,08,28,15,29,16.60
2005,08,28,15,30,16.60
2005,08,28,15,31,16.50
2005,08,28,15,32,16.40
2005,08,28,15,33,16.40
2005,08,28,15,34,16.40
2005,08,28,15,35,16.40
2005,08,28,15,36,16.40
2005,08,28,15,37,16.40
2005,08,28,15,38,16.40
2005,08,28,15,39,16.40
2005,08,28,15,40,16.40
2005,08,28,15,41,16.40
2005,08,28,15,42,16.40
2005,08,28,15,43,16.40
2005,08,28,15,44,16.40
2005,08,28,15,45,16.40
2005,08,28,15,46,16.40
2005,08,28,15,47,16.40
2005,08,28,15,48,16.40
2005,08,28,15,49,16.40
2005,08,28,15,50,16.40
2005,08,28,15,51,16.40
2005,08,28,15,52,16.40
2005,08,28,15,53,16.40
2005,08,28,15,54,16.40
2005,08,28,15,55,16.40
2005,08,28,15,56,16.40
2005,08,28,15,57,16.40
2005,08,28,15,58,16.40
2005,08,28,15,59,16.40
2005,08,28,16,00,16.40
2005,08,28,16,01,16.40
2005,08,28,16,02,16.40
2005,08,28,16,03,16.40
2005,08,28,16,04,16.40
2005,08,28,16,05,16.30
2005,08,28,16,06,16.30
2005,08,28,16,07,16.30
2005,08,28,16,08,16.30
2005,08,28,16,09,16.30
2005,08,28,16,10,16.30
2005,08,28,16,11,16.30
2005,08,28,16,12,16.30
2005,08,28,16,13,16.30
2005,08,28,16,14,16.30
2005,08,28,16,15,16.30
2005,08,28,16,16,16.30
2005,08,28,16,17,16.30
2005,08,28,16,18,16.40
2005,08,28,16,19,16.30
2005,08,28,16,20,16.40
2005,08,28,16,21,16.40
2005,08,28,16,22,16.40
2005,08,28,16,23,16.40
2005,08,28,16,24,16.40
2005,08,28,16,25,16.30
2005,08,28,16,26,16.30
2005,08,28,16,27,16.30
2005,08,28,16,28,16.30
2005,08,28,16,29,16.30
2005,08,28,16,30,16.30
2005,08,28,16,31,16.40
2005,08,28,16,32,16.40
2005,08,28,16,33,16.40
2005,08,28,16,34,16.40
2005,08,28,16,35,16.40
2005,08,28,16,36,16.40
2005,08,28,16,37,16.40
2005,08,28,16,38,16.40
2005,08,28,16,39,16.40
2005,08,28,16,40,16.50
2005,08,28,16,41,16.60
2005,08,28,16,42,16.60
2005,08,28,16,43,16.60
2005,08,28,16,44,16.70
2005,08,28,16,45,16.70
2005,08,28,16,46,16.70
2005,08,28,16,47,16.70
2005,08,28,16,48,16.70
2005,08,28,16,49,16.70
2005,08,28,16,50,16.70
2005,08,28,16,51,16.70
2005,08,28,16,52,16.70
2005,08,28,16,53,16.70
2005,08,28,16,54,16.70
2005,08,28,16,55,16.70
2005,08,28,16,56,16.70
2005,08,28,16,57,16.70
2005,08,28,16,58,16.70
2005,08,28,16,59,16.70
2005,08,28,17,00,16.70
2005,08,28,17,01,16.70
2005,08,28,17,02,16.70
2005,08,28,17,03,16.70
2005,08,28,17,04,16.70
2005,08,28,17,05,16.70
2005,08,28,17,06,16.70
2005,08,28,17,07,16.70
2005,08,28,17,08,16.70
2005,08,28,17,09,16.70
2005,08,28,17,10,16.70
2005,08,28,17,11,16.70
2005,08,28,17,12,16.70
2005,08,28,17,13,16.70
2005,08,28,17,14,16.70
2005,08,28,17,15,16.70
2005,08,28,17,16,16.70
2005,08,28,17,17,16.70
2005,08,28,17,18,16.70
2005,08,28,17,19,16.70